WA6MHA-11 Weather Reports


Display with metric or nautical units.
time (UTC)temp
F
wind
direction
speed
MPH
gust
MPH
rain 1hr
in
rain 24hr
in
rain mn
in
humidity
%
barometer
mb
20210515085858 58 114 3.0 5.0 0.00 0.00 0.00 50 1016.2
20210515085457 58 182 1.0 5.0 0.00 0.00 0.00 50 1016.3
20210515085056 58 126 3.0 9.0 0.00 0.00 0.00 50 1016.1
20210515084654 58 135 0.0 5.0 0.00 0.00 0.00 50 1016.2
20210515084252 58 180 2.0 6.0 0.00 0.00 0.00 50 1016.3
20210515083450 58 130 1.0 6.0 0.00 0.00 0.00 49 1016.5
20210515083049 58 135 1.0 4.0 0.00 0.00 0.00 50 1016.5
20210515082648 58 175 1.0 5.0 0.00 0.00 0.00 49 1016.5
20210515081845 58 173 1.0 2.0 0.00 0.00 0.00 49 1016.4
20210515081444 58 135 1.0 4.0 0.00 0.00 0.00 49 1016.5
20210515081044 58 180 3.0 6.0 0.00 0.00 0.00 50 1016.6
20210515080641 58 123 4.0 6.0 0.00 0.00 0.00 49 1016.5
20210515075839 57 135 1.0 6.0 0.00 0.00 0.00 50 1016.5
20210515075438 57 180 2.0 6.0 0.00 0.00 0.00 49 1016.6
20210515075036 57 128 5.0 5.0 0.00 0.00 0.00 49 1016.7
20210515074635 57 155 2.0 6.0 0.00 0.00 0.00 49 1016.6
20210515074308 57 168 3.0 5.0 0.00 0.00 0.00 49 1016.5
20210515074234 57 168 3.0 5.0 0.00 0.00 0.00 49 1016.5
20210515073833 57 177 3.0 8.0 0.00 0.00 0.00 49 1016.6
20210515073432 57 90 2.0 2.0 0.00 0.00 0.00 49 1016.6
20210515073029 57 180 4.0 6.0 0.00 0.00 0.00 49 1016.6
20210515072628 57 126 2.0 4.0 0.00 0.00 0.00 49 1016.7
20210515072227 57 173 1.0 6.0 0.00 0.00 0.00 49 1016.6
20210515071426 56 180 2.0 3.0 0.00 0.00 0.00 48 1016.8
20210515071023 56 180 2.0 2.0 0.00 0.00 0.00 48 1016.8
20210515070221 56 180 1.0 4.0 0.00 0.00 0.00 48 1016.7
20210515065820 56 121 0.0 3.0 0.00 0.00 0.00 48 1016.8
20210515065550 56 90 0.0 0.0 0.00 0.00 0.00 48 1016.6
20210515065418 56 90 0.0 0.0 0.00 0.00 0.00 48 1016.6
20210515065017 56 90 0.0 0.0 0.00 0.00 0.00 48 1016.8
20210515064616 56 90 0.0 0.0 0.00 0.00 0.00 48 1016.8
20210515064214 56 90 0.0 0.0 0.00 0.00 0.00 48 1016.8
20210515063813 56 108 0.0 1.0 0.00 0.00 0.00 48 1016.8
20210515063412 56 92 0.0 1.0 0.00 0.00 0.00 48 1016.8
20210515063011 56 135 0.0 4.0 0.00 0.00 0.00 47 1016.9
20210515062610 56 135 0.0 0.0 0.00 0.00 0.00 47 1016.9
20210515062208 56 90 0.0 0.0 0.00 0.00 0.00 47 1016.9
20210515061806 56 90 0.0 2.0 0.00 0.00 0.00 47 1016.9
20210515061406 56 123 0.0 1.0 0.00 0.00 0.00 47 1016.9
20210515061004 56 135 0.0 3.0 0.00 0.00 0.00 47 1016.8
20210515060603 56 121 1.0 2.0 0.00 0.00 0.00 47 1016.8
20210515060202 56 123 0.0 4.0 0.00 0.00 0.00 47 1016.8
20210515055800 56 92 0.0 4.0 0.00 0.00 0.00 47 1016.8
20210515055359 57 135 3.0 4.0 0.00 0.00 0.00 46 1016.6
20210515054958 57 96 0.0 4.0 0.00 0.00 0.00 46 1016.8
20210515054557 57 112 4.0 4.0 0.00 0.00 0.00 46 1016.8
20210515054237 57 180 0.0 5.0 0.00 0.00 0.00 46 1016.7
20210515054155 57 180 0.0 5.0 0.00 0.00 0.00 46 1016.7
20210515053754 57 126 3.0 6.0 0.00 0.00 0.00 46 1016.7
20210515053354 57 117 4.0 6.0 0.00 0.00 0.00 46 1016.7
20210515052951 57 135 3.0 6.0 0.00 0.00 0.00 46 1016.8
20210515052550 57 126 4.0 5.0 0.00 0.00 0.00 46 1016.8
20210515052149 57 112 3.0 4.0 0.00 0.00 0.00 45 1016.8
20210515051748 57 112 4.0 5.0 0.00 0.00 0.00 45 1016.8
20210515051348 58 121 3.0 5.0 0.00 0.00 0.00 45 1016.8
20210515050945 58 126 2.0 4.0 0.00 0.00 0.00 45 1016.8
20210515050543 58 123 3.0 3.0 0.00 0.00 0.00 45 1016.8
20210515050142 58 184 1.0 3.0 0.00 0.00 0.00 45 1016.9
20210515045933 58 103 2.0 4.0 0.00 0.00 0.00 44 1016.9
20210515045741 58 103 2.0 4.0 0.00 0.00 0.00 44 1016.9
20210515045340 58 121 2.0 3.0 0.00 0.00 0.00 44 1016.8
20210515044939 58 159 1.0 4.0 0.00 0.00 0.00 44 1016.8
20210515044538 58 112 1.0 8.0 0.00 0.00 0.00 44 1016.8
20210515043334 58 90 0.0 0.0 0.00 0.00 0.00 43 1016.6
20210515042531 58 130 0.0 2.0 0.00 0.00 0.00 43 1016.7
20210515042130 58 114 0.0 5.0 0.00 0.00 0.00 42 1016.7
20210515041327 58 141 4.0 5.0 0.00 0.00 0.00 42 1016.4
20210515040528 59 90 0.0 6.0 0.00 0.00 0.00 41 1016.5
20210515040525 59 90 0.0 6.0 0.00 0.00 0.00 41 1016.5
20210515040124 59 135 1.0 9.0 0.00 0.00 0.00 41 1016.3
20210515035722 59 126 6.0 9.0 0.00 0.00 0.00 41 1016.3
20210515035320 59 137 1.0 6.0 0.00 0.00 0.00 40 1016.1
20210515034919 59 114 4.0 8.0 0.00 0.00 0.00 40 1016.1
20210515034518 59 132 4.0 8.0 0.00 0.00 0.00 40 1016.1
20210515034117 60 114 6.0 8.0 0.00 0.00 0.00 40 1016.1
20210515033717 60 130 3.0 5.0 0.00 0.00 0.00 39 1016.0
20210515033314 60 128 3.0 8.0 0.00 0.00 0.00 39 1016.0
20210515032512 60 105 4.0 8.0 0.00 0.00 0.00 38 1015.9
20210515032110 60 117 4.0 7.0 0.00 0.00 0.00 38 1015.9
20210515031709 60 114 6.0 12.0 0.00 0.00 0.00 37 1015.7
20210515030907 61 101 7.0 10.0 0.00 0.00 0.00 37 1015.6
20210515030505 61 96 6.0 10.0 0.00 0.00 0.00 36 1015.5
20210515030104 61 119 9.0 13.0 0.00 0.00 0.00 36 1015.5
20210515025703 62 92 6.0 7.0 0.00 0.00 0.00 35 1015.5
20210515025305 62 90 4.0 8.0 0.00 0.00 0.00 35 1015.5
20210515024901 62 99 8.0 8.0 0.00 0.00 0.00 35 1015.6
20210515024057 63 105 6.0 8.0 0.00 0.00 0.00 34 1015.6
20210515023656 63 112 9.0 11.0 0.00 0.00 0.00 34 1015.5
20210515023255 63 126 8.0 13.0 0.00 0.00 0.00 34 1015.5
20210515022854 64 108 7.0 10.0 0.00 0.00 0.00 33 1015.4
20210515022453 64 117 6.0 11.0 0.00 0.00 0.00 33 1015.4
20210515022052 64 99 9.0 10.0 0.00 0.00 0.00 33 1015.3
20210515020847 66 132 11.0 14.0 0.00 0.00 0.00 32 1015.2
20210515020446 66 103 8.0 9.0 0.00 0.00 0.00 32 1015.2
20210515015242 67 99 7.0 14.0 0.00 0.00 0.00 31 1015.3
20210515015011 67 126 7.0 10.0 0.00 0.00 0.00 30 1015.3
20210515014841 67 126 7.0 10.0 0.00 0.00 0.00 30 1015.3
20210515014439 67 99 7.0 13.0 0.00 0.00 0.00 30 1015.4
20210515013638 67 112 8.0 13.0 0.00 0.00 0.00 30 1015.4
20210515013236 67 90 9.0 10.0 0.00 0.00 0.00 29 1015.3
20210515012834 67 108 11.0 11.0 0.00 0.00 0.00 29 1015.2
20210515012032 68 123 6.0 11.0 0.00 0.00 0.00 29 1015.0
20210515011230 69 110 10.0 13.0 0.00 0.00 0.00 28 1015.1
20210515010829 70 114 13.0 13.0 0.00 0.00 0.00 28 1015.2
20210515010427 69 119 10.0 12.0 0.00 0.00 0.00 28 1015.1
20210515010025 70 103 11.0 13.0 0.00 0.00 0.00 28 1015.2
20210515005624 72 117 5.0 10.0 0.00 0.00 0.00 28 1015.1
20210515004816 72 107 4.0 10.0 0.00 0.00 0.00 27 1015.2
20210515004415 72 123 8.0 18.0 0.00 0.00 0.00 27 1015.1
20210515004012 73 121 7.0 13.0 0.00 0.00 0.00 27 1015.1
20210515003614 0 108 11.0 13.0 0.00 0.00 0.00 27 1015.1
20210515003612 73 108 11.0 13.0 0.00 0.00 0.00 27 1015.1
20210515003214 75 123 11.0 11.0 0.00 0.00 0.00 27 1015.1
20210515001605 80 180 5.0 10.0 0.00 0.00 0.00 27 1015.1
20210515001204 81 177 4.0 8.0 0.00 0.00 0.00 27 1015.0
20210515000803 80 168 4.0 8.0 0.00 0.00 0.00 27 1014.9
20210514235559 82 114 9.0 9.0 0.00 0.00 0.00 27 1015.1
20210514235157 83 107 2.0 7.0 0.00 0.00 0.00 27 1015.2
20210514234756 82 11 2.0 10.0 0.00 0.00 0.00 27 1015.0
20210514234355 82 121 6.0 9.0 0.00 0.00 0.00 27 1015.0
20210514233954 81 106 5.0 10.0 0.00 0.00 0.00 27 1015.0
20210514233553 82 105 4.0 10.0 0.00 0.00 0.00 27 1015.0
20210514232348 85 165 2.0 9.0 0.00 0.00 0.00 27 1015.2
20210514231948 84 175 4.0 8.0 0.00 0.00 0.00 27 1015.2
20210514231546 85 126 6.0 10.0 0.00 0.00 0.00 27 1015.3
20210514231145 84 97 2.0 10.0 0.00 0.00 0.00 27 1015.3
20210514230745 83 173 5.0 14.0 0.00 0.00 0.00 27 1015.3
20210514230743 83 173 5.0 14.0 0.00 0.00 0.00 27 1015.3
20210514230342 85 163 2.0 8.0 0.00 0.00 0.00 27 1015.3
20210514225941 85 122 9.0 13.0 0.00 0.00 0.00 27 1015.3
20210514225133 86 108 3.0 8.0 0.00 0.00 0.00 28 1015.4
20210514224330 86 152 3.0 9.0 0.00 0.00 0.00 28 1015.4
20210514223928 86 130 5.0 11.0 0.00 0.00 0.00 28 1015.5
20210514223527 85 180 10.0 10.0 0.00 0.00 0.00 28 1015.6
20210514223128 87 184 5.0 9.0 0.00 0.00 0.00 28 1015.7
20210514222725 85 173 3.0 12.0 0.00 0.00 0.00 28 1015.7
20210514222324 86 116 5.0 9.0 0.00 0.00 0.00 28 1015.7
20210514221922 87 130 1.0 9.0 0.00 0.00 0.00 29 1015.8
20210514221521 86 164 2.0 9.0 0.00 0.00 0.00 29 1015.8
20210514221120 86 115 6.0 9.0 0.00 0.00 0.00 29 1015.9
20210514220317 85 148 6.0 7.0 0.00 0.00 0.00 29 1015.9
20210514215916 85 175 5.0 10.0 0.00 0.00 0.00 29 1016.1
20210514215515 82 171 2.0 12.0 0.00 0.00 0.00 29 1016.2
20210514215114 81 83 5.0 11.0 0.00 0.00 0.00 29 1016.1
20210514214713 83 85 5.0 9.0 0.00 0.00 0.00 29 1016.2
20210514214311 83 85 6.0 10.0 0.00 0.00 0.00 30 1016.3
20210514213909 82 121 6.0 11.0 0.00 0.00 0.00 30 1016.3
20210514213106 84 108 4.0 8.0 0.00 0.00 0.00 30 1016.4
20210514212705 85 180 5.0 10.0 0.00 0.00 0.00 30 1016.4
20210514212305 86 145 4.0 8.0 0.00 0.00 0.00 30 1016.5
20210514211904 87 182 5.0 11.0 0.00 0.00 0.00 30 1016.6
20210514211502 87 180 8.0 8.0 0.00 0.00 0.00 30 1016.6
20210514210659 86 154 3.0 7.0 0.00 0.00 0.00 31 1016.7
20210514210300 85 165 4.0 9.0 0.00 0.00 0.00 31 1016.8
20210514205857 85 180 8.0 10.0 0.00 0.00 0.00 31 1016.8
20210514205455 84 105 9.0 10.0 0.00 0.00 0.00 31 1016.8
20210514205054 85 92 6.0 7.0 0.00 0.00 0.00 31 1016.9
20210514204653 83 101 2.0 11.0 0.00 0.00 0.00 31 1016.8
20210514203850 82 74 7.0 9.0 0.00 0.00 0.00 32 1017.0
20210514203449 83 45 6.0 8.0 0.00 0.00 0.00 32 1017.0
20210514203048 83 85 3.0 9.0 0.00 0.00 0.00 32 1017.1
20210514202646 84 101 4.0 9.0 0.00 0.00 0.00 33 1017.0
20210514202247 84 54 5.0 5.0 0.00 0.00 0.00 33 1017.0
20210514201844 84 128 1.0 6.0 0.00 0.00 0.00 33 1017.2
20210514201442 83 87 5.0 6.0 0.00 0.00 0.00 33 1017.1
20210514201041 81 123 4.0 9.0 0.00 0.00 0.00 34 1017.1
20210514195840 80 87 5.0 6.0 0.00 0.00 0.00 35 1017.2
20210514195034 83 9 2.0 7.0 0.00 0.00 0.00 35 1017.3
20210514194232 81 96 8.0 8.0 0.00 0.00 0.00 36 1017.4
20210514193831 82 150 2.0 5.0 0.00 0.00 0.00 36 1017.4
20210514193430 81 92 4.0 8.0 0.00 0.00 0.00 37 1017.5
20210514193028 80 119 3.0 9.0 0.00 0.00 0.00 37 1017.4
20210514192627 82 123 6.0 7.0 0.00 0.00 0.00 37 1017.5
20210514192225 80 191 6.0 8.0 0.00 0.00 0.00 38 1017.6
20210514191824 79 135 3.0 9.0 0.00 0.00 0.00 38 1017.7
20210514191423 79 182 9.0 9.0 0.00 0.00 0.00 39 1017.6
20210514191023 76 45 1.0 8.0 0.00 0.00 0.00 39 1017.6
20210514190620 76 180 4.0 6.0 0.00 0.00 0.00 39 1017.7
20210514190219 75 353 6.0 9.0 0.00 0.00 0.00 40 1017.7
20210514185417 74 83 8.0 10.0 0.00 0.00 0.00 41 1017.8
20210514184615 77 227 0.0 6.0 0.00 0.00 0.00 42 1017.8
20210514184213 76 180 5.0 7.0 0.00 0.00 0.00 42 1017.8
20210514183811 76 94 4.0 6.0 0.00 0.00 0.00 43 1017.8
20210514183411 76 0 0.0 11.0 0.00 0.00 0.00 43 1017.7
20210514183009 76 78 3.0 4.0 0.00 0.00 0.00 43 1017.8
20210514182611 74 144 2.0 4.0 0.00 0.00 0.00 1017.9
20210514182608 74 144 2.0 4.0 0.00 0.00 0.00 44 1017.9
20210514182207 72 180 4.0 4.0 0.00 0.00 0.00 44 1017.9
20210514181404 70 81 8.0 12.0 0.00 0.00 0.00 45 1017.7
20210514181003 70 67 5.0 9.0 0.00 0.00 0.00 46 1017.7
20210514180602 71 103 9.0 9.0 0.00 0.00 0.00 46 1017.8
20210514180201 70 155 2.0 11.0 0.00 0.00 0.00 47 1017.9
20210514175759 68 139 1.0 5.0 0.00 0.00 0.00 47 1017.9
20210514175358 67 87 4.0 8.0 0.00 0.00 0.00 47 1017.9
20210514174957 67 101 7.0 11.0 0.00 0.00 0.00 48 1017.9
20210514174555 67 121 7.0 7.0 0.00 0.00 0.00 48 1017.9
20210514174155 67 335 2.0 12.0 0.00 0.00 0.00 48 1017.9
20210514173753 67 140 3.0 10.0 0.00 0.00 0.00 48 1017.9
20210514173352 67 135 3.0 7.0 0.00 0.00 0.00 49 1017.9
20210514172950 66 192 2.0 10.0 0.00 0.00 0.00 49 1017.9
20210514171347 63 94 3.0 7.0 0.00 0.00 0.00 50 1017.9
20210514170944 64 90 4.0 6.0 0.00 0.00 0.00 50 1018.0
20210514170542 63 83 2.0 7.0 0.00 0.00 0.00 50 1018.0
20210514165339 62 30 2.0 3.0 0.00 0.00 0.00 51 1018.0
20210514164942 62 103 2.0 4.0 0.00 0.00 0.00 51 1018.1
20210514164536 62 65 2.0 2.0 0.00 0.00 0.00 51 1018.2
20210514163733 60 90 1.0 5.0 0.00 0.00 0.00 51 1018.1
20210514163332 60 96 2.0 3.0 0.00 0.00 0.00 51 1018.2
20210514162931 60 108 4.0 5.0 0.00 0.00 0.00 51 1018.2
20210514162530 59 92 3.0 6.0 0.00 0.00 0.00 52 1018.2
20210514162129 59 135 4.0 4.0 0.00 0.00 0.00 52 1018.2
20210514161326 59 135 2.0 5.0 0.00 0.00 0.00 52 1018.3
20210514160924 60 135 1.0 4.0 0.00 0.00 0.00 52 1018.4
20210514160523 60 182 2.0 3.0 0.00 0.00 0.00 52 1018.4
20210514160122 59 189 2.0 5.0 0.00 0.00 0.00 52 1018.4
20210514155721 59 180 5.0 5.0 0.00 0.00 0.00 52 1018.4
20210514155320 59 218 3.0 4.0 0.00 0.00 0.00 52 1018.5
20210514154918 59 85 0.0 3.0 0.00 0.00 0.00 52 1018.4
20210514154519 58 150 1.0 3.0 0.00 0.00 0.00 52 1018.5
20210514154116 58 182 3.0 8.0 0.00 0.00 0.00 53 1018.4
20210514153714 58 105 6.0 10.0 0.00 0.00 0.00 53 1018.4
20210514153313 58 99 5.0 7.0 0.00 0.00 0.00 53 1018.4
20210514152510 58 144 2.0 3.0 0.00 0.00 0.00 53 1018.4
20210514152112 58 182 2.0 5.0 0.00 0.00 0.00 53 1018.3
20210514151708 58 139 0.0 4.0 0.00 0.00 0.00 53 1018.3
20210514151307 58 153 1.0 2.0 0.00 0.00 0.00 53 1018.4
20210514150906 58 135 0.0 4.0 0.00 0.00 0.00 53 1018.3
20210514150504 58 175 0.0 3.0 0.00 0.00 0.00 53 1018.2
20210514150102 58 119 3.0 4.0 0.00 0.00 0.00 53 1018.3
20210514145701 58 101 3.0 3.0 0.00 0.00 0.00 53 1018.4
20210514145300 58 180 2.0 5.0 0.00 0.00 0.00 53 1018.3
20210514144901 58 171 2.0 5.0 0.00 0.00 0.00 53 1018.3
20210514144459 58 180 3.0 11.0 0.00 0.00 0.00 53 1018.3
20210514143655 58 184 5.0 8.0 0.00 0.00 0.00 53 1018.2
20210514143254 57 120 4.0 4.0 0.00 0.00 0.00 53 1018.1
20210514142854 57 99 0.0 7.0 0.00 0.00 0.00 53 1018.1
20210514142452 57 90 1.0 5.0 0.00 0.00 0.00 53 1018.1
20210514142050 57 45 4.0 9.0 0.00 0.00 0.00 53 1018.0
20210514141247 57 132 5.0 5.0 0.00 0.00 0.00 52 1018.0
20210514140847 58 112 4.0 5.0 0.00 0.00 0.00 52 1018.1
20210514140445 58 166 2.0 4.0 0.00 0.00 0.00 52 1018.0
20210514140044 58 180 1.0 5.0 0.00 0.00 0.00 52 1018.0
20210514135643 57 180 1.0 3.0 0.00 0.00 0.00 52 1017.9
20210514135240 57 135 1.0 4.0 0.00 0.00 0.00 52 1017.9
20210514134839 57 175 2.0 5.0 0.00 0.00 0.00 52 1017.8
20210514134438 57 105 4.0 7.0 0.00 0.00 0.00 52 1017.8
20210514134037 57 112 0.0 0.0 0.00 0.00 0.00 52 1017.8
20210514133636 57 92 0.0 1.0 0.00 0.00 0.00 52 1017.8
20210514133235 57 99 4.0 4.0 0.00 0.00 0.00 52 1017.8
20210514132833 57 96 2.0 2.0 0.00 0.00 0.00 52 1017.7
20210514132432 57 135 0.0 0.0 0.00 0.00 0.00 52 1017.7
20210514132031 57 180 0.0 0.0 0.00 0.00 0.00 52 1017.6
20210514131630 57 144 0.0 0.0 0.00 0.00 0.00 52 1017.5
20210514131228 57 135 0.0 2.0 0.00 0.00 0.00 52 1017.4
20210514130426 57 103 0.0 0.0 0.00 0.00 0.00 52 1017.3
20210514130024 57 135 0.0 0.0 0.00 0.00 0.00 52 1017.3
20210514125623 57 90 0.0 0.0 0.00 0.00 0.00 52 1017.3
20210514125222 57 90 0.0 0.0 0.00 0.00 0.00 52 1017.3
20210514124420 57 90 0.0 1.0 0.00 0.00 0.00 52 1017.2
20210514124018 57 90 0.0 2.0 0.00 0.00 0.00 52 1017.3
20210514123616 57 135 1.0 3.0 0.00 0.00 0.00 52 1017.3
20210514123215 57 90 2.0 4.0 0.00 0.00 0.00 52 1017.3
20210514122814 57 90 4.0 4.0 0.00 0.00 0.00 52 1017.3
20210514122413 57 90 4.0 4.0 0.00 0.00 0.00 52 1017.3
20210514122013 57 247 2.0 4.0 0.00 0.00 0.00 52 1017.3
20210514121209 57 90 3.0 3.0 0.00 0.00 0.00 52 1017.3
20210514120406 57 126 2.0 5.0 0.00 0.00 0.00 52 1017.3
20210514120008 57 90 3.0 5.0 0.00 0.00 0.00 52 1017.3
20210514115604 57 90 4.0 7.0 0.00 0.00 0.00 51 1017.3
20210514115203 57 90 4.0 9.0 0.00 0.00 0.00 51 1017.3
20210514114400 58 171 1.0 5.0 0.00 0.00 0.00 51 1017.2
20210514113959 57 180 4.0 6.0 0.00 0.00 0.00 51 1017.4
20210514113157 58 135 2.0 2.0 0.00 0.00 0.00 51 1017.2
20210514112800 58 141 0.0 3.0 0.00 0.00 0.00 51 1017.3
20210514111953 58 117 2.0 5.0 0.00 0.00 0.00 51 1017.2
20210514111551 58 135 0.0 1.0 0.00 0.00 0.00 51 1017.1
20210514111151 57 162 1.0 3.0 0.00 0.00 0.00 51 1017.2
20210514110347 57 99 3.0 7.0 0.00 0.00 0.00 51 1017.1
20210514105946 57 135 3.0 4.0 0.00 0.00 0.00 51 1017.3
20210514105545 57 135 2.0 4.0 0.00 0.00 0.00 51 1017.2
20210514105143 57 135 1.0 4.0 0.00 0.00 0.00 51 1017.2
20210514104742 57 103 4.0 5.0 0.00 0.00 0.00 51 1017.2
20210514104341 57 90 2.0 3.0 0.00 0.00 0.00 51 1017.2
20210514103940 58 87 1.0 2.0 0.00 0.00 0.00 51 1017.2
20210514103538 58 135 1.0 2.0 0.00 0.00 0.00 51 1017.2
20210514102737 57 90 0.0 2.0 0.00 0.00 0.00 51 1017.2
20210514102335 57 90 3.0 4.0 0.00 0.00 0.00 51 1017.3
20210514101532 57 90 0.0 0.0 0.00 0.00 0.00 51 1017.3
20210514101130 57 90 0.0 0.0 0.00 0.00 0.00 51 1017.3
20210514100729 58 90 0.0 0.0 0.00 0.00 0.00 51 1017.3
20210514100329 58 90 0.0 0.0 0.00 0.00 0.00 51 1017.3
20210514100013 58 90 0.0 0.0 0.00 0.00 0.00 51 1017.4
20210514095927 58 90 0.0 0.0 0.00 0.00 0.00 51 1017.4
20210514095526 58 164 0.0 0.0 0.00 0.00 0.00 51 1017.4
20210514095125 57 135 0.0 0.0 0.00 0.00 0.00 51 1017.4
20210514094723 57 135 0.0 0.0 0.00 0.00 0.00 51 1017.4
20210514094322 57 135 0.0 0.0 0.00 0.00 0.00 51 1017.5
20210514093920 57 135 0.0 0.0 0.00 0.00 0.00 51 1017.5
20210514093522 57 135 0.0 0.0 0.00 0.00 0.00 51 1017.5
20210514093118 57 135 0.0 0.0 0.00 0.00 0.00 51 1017.5
20210514092717 57 137 0.0 0.0 0.00 0.00 0.00 51 1017.5
20210514092315 57 180 0.0 0.0 0.00 0.00 0.00 51 1017.6
20210514091914 57 180 0.0 0.0 0.00 0.00 0.00 51 1017.6
20210514091513 57 135 0.0 0.0 0.00 0.00 0.00 51 1017.6
20210514091112 57 135 0.0 0.0 0.00 0.00 0.00 51 1017.6
20210514090309 57 90 0.0 0.0 0.00 0.00 0.00 51 1017.8